Regional Weather Roundup
Issued by NWS Sioux Falls, SD

Home | Current Version | Previous Version | Graphics & Text | Print | Product List | Glossary On
Versions: 1 2 3 4 5 6 7 8 9 10 11 12 13 14 15 16 17 18 19 20 21 22 23 24 25 26 27 28 29 30 31 32 33 34 35 36 37 38 39 40 41 42 43 44 45 46 47 48 49 50
000
ASUS43 KFSD 271010
RWRFSD

WEATHER ROUNDUP FOR SE SOUTH DAKOTA/SW MINNESOTA/NW IOWA
NATIONAL WEATHER SERVICE SIOUX FALLS SD
400 AM CST FRI FEB 27 2015

NOTE: "FAIR" INDICATES FEW OR NO CLOUDS BELOW 12,000 FEET WITH NO
SIGNIFICANT WEATHER AND OR OBSTRUCTIONS TO VISIBILITY.


SDZ038>040-050-052>070-271100-
SOUTHEAST SOUTH DAKOTA

CITY           SKY/WX    TMP DP  RH WIND       PRES   REMARKS
CHAMBERLAIN    CLEAR     -6 -10  85 CALM      30.50S
HURON          PTCLDY   -14 -18  82 CALM      30.53F
MADISON        FAIR      -9 -13  84 W6        30.48S WCI -23
MITCHELL       CLEAR     -5 -10  79 W6        30.55F WCI -18
SIOUX FALLS    CLEAR     -9 -14  78 CALM      30.51F
WINNER         FAIR       1  -9  62 SW8       30.46F WCI -13
YANKTON        CLEAR     -2  -9  71 W6        30.56S WCI -14
$$

MNZ071-072-080-081-089-090-097-098-271100-
SOUTHWEST MINNESOTA

CITY           SKY/WX    TMP DP  RH WIND       PRES   REMARKS
FAIRMONT       CLEAR     -8 -18  59 NW6       30.49S WCI -21
JACKSON        CLEAR     -9 -17  70 W6        30.49S WCI -23
LUVERNE        CLEAR     -9 -15  77 CALM      30.52F
MARSHALL       CLEAR     -9 -15  77 W5        30.52S WCI -21
MONTEVIDEO     CLEAR     -8 -13  77 W5        30.53S WCI -19
PIPESTONE      PTCLDY   -11 -17  77 CALM      30.47S
REDWOOD FALLS  CLEAR     -9 -14  78 W8        30.53S WCI -25
TRACY          CLEAR     -8 -14  75 W8        30.50S WCI -24
WINDOM         CLEAR    -13 -18  77 CALM      30.49S
WORTHINGTON    CLEAR     19 -22  15 W7        30.50S WCI  10
$$

IAZ001>003-012>014-020>022-031-032-NEZ013-014-SDZ071-271100-
NORTHWEST IOWA

CITY           SKY/WX    TMP DP  RH WIND       PRES   REMARKS
CHEROKEE       PTCLDY   -18 -23  79 CALM      30.55S
DENISON        PTCLDY   -17 -24  70 CALM      30.55S
ESTHERVILLE    CLEAR    -14 -19  79 W8        30.50F WCI -31
LE MARS        CLEAR     -8 -11  84 CALM      30.57S
ORANGE CITY    CLEAR     -8 -11  84 CALM      30.51S
SHELDON        CLEAR    -13 -18  77 CALM      30.51S
SIOUX CITY     CLEAR     -3  -9  75 CALM      30.59S
SPENCER        CLEAR    -13 -19  75 NW6       30.52S WCI -27
STORM LAKE     PTCLDY   -13 -20  70 W10       30.52S WCI -32
$$

ABBREVIATIONS USED IN REMARKS
   TC - TEMPERATURE IN CELSIUS
  WCI - WIND CHILL INDEX
   HX - HEAT INDEX
  VSB - VISIBILITY




USA.gov is the U.S. government's official web portal to all federal, state and local government web resources and services.